Flight Track Log - Related Links

Times and Time Zones

All times are in EST time to prevent confusion due to time zone crossing. See the C-FZQP flight status page for this flight to view local times or setup timezone preferences in your user account.

Time Position Orientation Groundspeed Altitude Reporting Facility
EST Latitude Longitude Course Direction KTS MPH feet Rate Location/Type
Sat 20:38:30 39.5367 -104.8686 212° Southwest 185 213 7,900  Level Denver Center
Sat 20:39:30 39.4789 -104.9156 212° Southwest 224 258 8,400 1,350 Climbing Denver Center
Sat 20:40:30 39.4108 -104.9708 212° Southwest 278 320 10,600 2,700 Climbing Denver Center
Sat 20:41:30 39.3325 -105.0344 192° South 317 365 13,800 3,350 Climbing Denver Center
Sat 20:42:30 39.2450 -105.0575 181° South 331 381 17,300 3,400 Climbing Denver Center
Sat 20:43:30 39.1514 -105.0594 203° Southwest 331 381 20,600 2,950 Climbing Denver Center
Sat 20:44:30 39.0603 -105.1094 204° Southwest 341 392 23,200 2,550 Climbing Denver Center
Sat 20:45:30 38.9650 -105.1647 208° Southwest 365 420 25,700 2,400 Climbing Denver Center
Sat 20:46:30 38.8697 -105.2306 229° Southwest 385 443 28,000 2,050 Climbing Denver Center
Sat 20:47:30 38.7958 -105.3383 229° Southwest 404 465 29,800 1,700 Climbing Denver Center
Sat 20:48:30 38.7281 -105.4378 228° Southwest 415 478 31,400 1,200 Climbing Denver Center
Sat 20:49:30 38.6456 -105.5561 228° Southwest 437 503 32,200 1,350 Climbing Denver Center
Sat 20:50:30 38.5650 -105.6714 228° Southwest 445 512 34,100 1,850 Climbing Denver Center
Sat 20:51:30 38.4886 -105.7808 233° Southwest 428 493 35,900 950 Climbing Denver Center
Sat 20:52:30 38.4103 -105.9114 227° Southwest 423 487 36,000 50 Climbing Denver Center
Sat 20:53:30 38.3356 -106.0153 229° Southwest 437 503 36,000  Level Denver Center
Sat 20:54:30 38.2567 -106.1319 227° Southwest 444 511 36,000  Level Denver Center
Sat 20:55:30 38.1633 -106.2592 228° Southwest 450 518 36,000  Level Denver Center
Sat 20:56:30 38.0944 -106.3569 230° Southwest 451 519 36,000  Level Denver Center
Sat 20:57:30 38.0092 -106.4836 228° Southwest 442 509 36,000  Level Denver Center
Sat 20:58:30 37.9256 -106.5994 228° Southwest 442 509 36,000  Level Denver Center
Sat 20:59:30 37.8358 -106.7253 228° Southwest 442 509 36,000 150 Level Denver Center
Sat 21:00:30 37.7625 -106.8275 228° Southwest 442 509 36,300 350 Climbing Denver Center
Sat 21:01:30 37.6703 -106.9581 227° Southwest 442 509 36,700 350 Climbing Denver Center
Sat 21:02:30 37.5864 -107.0728 229° Southwest 448 516 37,000 150 Climbing Denver Center
Sat 21:03:30 37.5108 -107.1819 227° Southwest 454 522 37,000  Level Denver Center
Sat 21:04:30 37.4267 -107.2961 228° Southwest 454 522 37,000  Level Denver Center
Sat 21:05:30 37.3339 -107.4256 228° Southwest 461 531 37,000  Level Denver Center
Sat 21:06:30 37.2475 -107.5442 228° Southwest 461 531 37,000  Level Denver Center
Sat 21:07:30 37.1714 -107.6500 228° Southwest 466 536 37,000  Level Denver Center
Sat 21:08:30 37.0783 -107.7783 227° Southwest 459 528 37,000  Level Denver Center
Sat 21:09:30 36.9933 -107.8939 227° Southwest 459 528 37,000  Level Denver Center
Sat 21:10:30 36.9108 -108.0064 228° Southwest 459 528 37,000  Level Denver Center
Sat 21:11:30 36.8364 -108.1083 227° Southwest 459 528 37,000  Level Denver Center
Sat 21:12:30 36.7450 -108.2306 227° Southwest 447 514 37,000  Level Denver Center
Sat 21:13:30 36.6639 -108.3400 226° Southwest 442 509 37,000  Level Denver Center
Sat 21:14:30 36.5808 -108.4489 228° Southwest 436 502 37,000  Level Denver Center
Sat 21:15:30 36.5083 -108.5475 227° Southwest 436 502 37,000  Level Denver Center
Sat 21:16:30 36.4164 -108.6714 227° Southwest 436 502 37,000  Level Denver Center
Sat 21:17:30 36.3328 -108.7822 227° Southwest 436 502 37,000  Level Denver Center
Sat 21:18:30 36.2558 -108.8853 228° Southwest 441 507 37,000  Level Denver Center
Sat 21:19:30 36.1633 -109.0106 225° Southwest 446 513 37,000  Level Denver Center
Sat 21:20:30 36.0756 -109.1181 226° Southwest 446 513 37,000  Level Denver Center
Sat 21:22:17 35.9297 -109.3031 226° Southwest 459 528 37,000  Level Albuquerque Center
Sat 21:23:17 35.8444 -109.4136 227° Southwest 453 521 37,000  Level Albuquerque Center
Sat 21:24:17 35.7483 -109.5392 226° Southwest 453 521 37,000  Level Albuquerque Center
Sat 21:25:17 35.6628 -109.6494 227° Southwest 453 521 37,000  Level Albuquerque Center
Sat 21:26:17 35.5856 -109.7519 226° Southwest 458 527 37,000  Level Albuquerque Center
Sat 21:27:17 35.4978 -109.8642 226° Southwest 463 533 37,000  Level Albuquerque Center
Sat 21:28:17 35.4011 -109.9883 227° Southwest 463 533 37,000  Level Albuquerque Center
Sat 21:29:17 35.3172 -110.1003 228° Southwest 463 533 37,000  Level Albuquerque Center
Sat 21:30:17 35.2397 -110.2044 226° Southwest 463 533 37,000 -550 Level Albuquerque Center
Sat 21:31:17 35.1514 -110.3181 227° Southwest 463 533 35,900 -1,300 Descending Albuquerque Center
Sat 21:32:17 35.0544 -110.4439 227° Southwest 463 533 34,400 -1,400 Descending Albuquerque Center
Sat 21:33:17 34.9658 -110.5597 227° Southwest 468 539 33,100 -1,250 Descending Albuquerque Center
Sat 21:34:17 34.8858 -110.6656 229° Southwest 468 539 31,900 -1,339 Descending Albuquerque Center
Sat 21:35:18 34.7989 -110.7858 227° Southwest 476 548 30,400 -1,800 Descending Albuquerque Center
Sat 21:36:17 34.7078 -110.9033 225° Southwest 481 554 28,300 -1,613 Descending Albuquerque Center
Sat 21:37:17 34.6147 -111.0181 227° Southwest 481 554 27,200 -1,750 Descending Albuquerque Center
Sat 21:38:17 34.5189 -111.1422 225° Southwest 481 554 24,800 -3,000 Descending Albuquerque Center
Sat 21:39:17 34.4364 -111.2417 227° Southwest 468 539 21,200 -3,650 Descending Albuquerque Center
Sat 21:40:17 34.3383 -111.3703 227° Southwest 468 539 17,500 -3,600 Descending Albuquerque Center
Sat 21:41:17 34.2556 -111.4769 226° Southwest 462 532 14,000 -3,100 Descending Albuquerque Center
Sat 21:42:17 34.1811 -111.5711 226° Southwest 430 495 11,300 -1,550 Descending Albuquerque Center
Sat 21:43:17 34.1244 -111.6408 227° Southwest 364 419 10,900 -250 Descending Albuquerque Center
Sat 21:44:17 34.0675 -111.7133 221° Southwest 314 361 10,800 -750 Descending Albuquerque Center
Sat 21:45:17 34.0047 -111.7800 223° Southwest 303 349 9,400 -1,400 Descending Albuquerque Center
Sat 21:46:17 33.9481 -111.8447 233° Southwest 290 334 8,000 -1,007 Descending Albuquerque Center
Sat 21:47:40 33.8903 -111.9367 243° Southwest 230 265 7,000 -739 Descending Albuquerque Center
Sat 21:48:35 33.8650 -111.9953 242° Southwest 211 243 6,300 -569 Descending Albuquerque Center
Sat 21:49:36 33.8308 -112.0733 248° West 257 296 5,900 -694 Descending Albuquerque Center
Sat 21:50:36 33.8047 -112.1517 227° Southwest 269 310 4,900 -694 Descending Albuquerque Center
Sat 21:51:37 33.7672 -112.1994 189° South 205 236 4,500 -678 Descending Albuquerque Center
Sat 21:52:31 33.7189 -112.2092 187° South 213 245 3,600 -574 Descending Albuquerque Center
Sat 21:53:32 33.6706 -112.2164 203° Southwest 156 180 3,400 -246 Descending Albuquerque Center
Sat 21:54:33 33.6344 -112.2344 205° Southwest 142 163 3,100 -397 Descending Albuquerque Center
Sat 21:55:33 33.5981 -112.2547 205° Southwest 145 167 2,600 -645 Descending Albuquerque Center
Sat 21:56:34 33.5619 -112.2750 209° Southwest 138 159 1,800 -744 Descending Albuquerque Center
Sat 21:57:34 33.5339 -112.2933 209° Southwest 131 151 1,100 -700 Descending Albuquerque Center

Login

Don't have an account? Register now (free) for customized features, flight alerts, and more!